Regional Weather Roundup
Issued by NWS

Home | Current Version | Previous Version | Text Only | Print | Product List | Glossary On
Versions: 1 2 3 4 5 6 7 8 9 10 11 12 13 14 15 16 17 18 19 20 21 22 23 24 25 26 27 28 29 30 31 32 33 34 35 36 37 38 39 40 41 42 43 44 45 46 47 48 49
000
ASUS44 KBMX 281410
RWRAL

ALABAMA REGIONAL WEATHER ROUNDUP
NATIONAL WEATHER SERVICE BIRMINGHAM AL
800 AM CST SAT FEB 28 2015

NOTE: "FAIR" INDICATES FEW OR NO CLOUDS BELOW 12,000 FEET
WITH NO SIGNIFICANT WEATHER AND/OR OBSTRUCTIONS TO VISIBILITY.

THE REMARK "TC" DENOTES TEMPERATURE IN DEGREES CELSIUS.

ALZ001>011-014-016>018-020-281500-
NORTH ALABAMA

CITY           SKY/WX    TMP DP  RH WIND       PRES   REMARKS
MUSCLE SHOALS  PTSUNNY   30  14  51 NE6       30.57R WCI  24
HUNTSVILLE     CLOUDY    32  20  61 N5        30.55R WCI  27
DECATUR        CLOUDY    30  18  60 NE8       30.56R WCI  22
HALEYVILLE       N/A     29  18  63 NE5       30.54R WCI  24
GADSDEN        MOSUNNY   34  21  60 E9        30.53S WCI  26
$$

ALZ012-013-022-023-030>036-040>044-281500-
WEST CENTRAL ALABAMA

CITY           SKY/WX    TMP DP  RH WIND       PRES   REMARKS
TUSCALOOSA     MOSUNNY   38  21  50 N7        30.53R WCI  33
$$

ALZ015-024>027-033>036-040>044-281500-
CENTRAL ALABAMA

CITY           SKY/WX    TMP DP  RH WIND       PRES   REMARKS
BIRMINGHAM     PTSUNNY   36  19  50 E7        30.53R WCI  30
MONTGOMERY     PTSUNNY   41  26  55 NE8       30.52R
SHELBY CO ARPT MOSUNNY   37  22  54 E5        30.51R WCI  33
MAXWELL AFB    CLOUDY    39  26  59 NE7       30.50R WCI  34
GREENVILLE     FAIR      39  26  59 E8        30.47R WCI  33
$$

ALZ019-021-028-029-037-038-045>048-281500-
EAST CENTRAL ALABAMA

CITY           SKY/WX    TMP DP  RH WIND       PRES   REMARKS
ANNISTON       PTSUNNY   37  23  56 NE10      30.54R WCI  30
ALEXANDER CITY PTSUNNY   39  22  50 NE7       30.52  WCI  34
AUBURN         PTSUNNY   36  23  60 NE9       30.53S WCI  29
$$

ALZ051>064-281500-
SOUTHWEST ALABAMA

CITY           SKY/WX    TMP DP  RH WIND       PRES   REMARKS
MOBILE         PTSUNNY   37  26  64 NE10      30.45R WCI  30
BROOKLEY FIELD PTSUNNY   41  28  60 N9        30.46R
EVERGREEN      MOSUNNY   42  28  57 NE5       30.47R
$$

ALZ049-050-065>069-281500-
SOUTHEAST ALABAMA

CITY           SKY/WX    TMP DP  RH WIND       PRES   REMARKS
DOTHAN         MOSUNNY   44  34  67 NE13      30.49R
OZARK          PTSUNNY   43  31  63 NE13      30.46R
TROY           PTSUNNY   40  27  59 NE8       30.50R WCI  34
EUFAULA        FAIR      43  30  60 VRB5      30.50R
$$


USA.gov is the U.S. government's official web portal to all federal, state and local government web resources and services.